This is the latest recevied weather packets stored in our database for station/object SQ9NFI-4. If no packets are shown the sender has not sent any weather packets the latest 1 day(s).
| Time | Temp. | Humidity | Pressure | Rain* | Wind** | Luminosity | Snow |
|---|---|---|---|---|---|---|---|
| 1777988977 | 28.33° C | 19% | 1008.8 hPa | 0 mm | 8.49 m/s, 182° | 543 W/m² | - |
| 1777988677 | 28.33° C | 19% | 1008.8 hPa | 0 mm | 4.92 m/s, 192° | 553 W/m² | - |
| 1777988377 | 28.33° C | 20% | 1008.8 hPa | 0 mm | 7.15 m/s, 164° | 520 W/m² | - |
| 1777988077 | 27.78° C | 19% | 1008.8 hPa | 0 mm | 5.81 m/s, 256° | 508 W/m² | - |
| 1777987777 | 27.78° C | 20% | 1008.8 hPa | 0 mm | 3.58 m/s, 292° | 346 W/m² | - |
| 1777987477 | 27.78° C | 18% | 1008.8 hPa | 0 mm | 3.13 m/s, 282° | 373 W/m² | - |
| 1777987177 | 27.22° C | 18% | 1008.8 hPa | 0 mm | 2.68 m/s, 281° | 294 W/m² | - |
| 1777986877 | 27.22° C | 19% | 1008.8 hPa | 0 mm | 4.92 m/s, 176° | 299 W/m² | - |
| 1777986577 | 27.22° C | 18% | 1008.8 hPa | 0 mm | 6.71 m/s, 232° | 283 W/m² | - |
| 1777986277 | 27.22° C | 18% | 1008.8 hPa | 0 mm | 7.6 m/s, 188° | 356 W/m² | - |
| 1777985977 | 27.22° C | 19% | 1008.8 hPa | 0 mm | 4.47 m/s, 192° | 320 W/m² | - |
| 1777985677 | 27.22° C | 19% | 1008.8 hPa | 0 mm | 3.13 m/s, 178° | 316 W/m² | - |
| 1777985377 | 27.22° C | 20% | 1008.8 hPa | 0 mm | 4.02 m/s, 225° | 373 W/m² | - |
| 1777985077 | 27.22° C | 20% | 1009.1 hPa | 0 mm | 3.13 m/s, 204° | 333 W/m² | - |
| 1777984777 | 26.67° C | 19% | 1009.1 hPa | 0 mm | 4.47 m/s, 208° | 279 W/m² | - |
| 1777984477 | 26.67° C | 21% | 1008.8 hPa | 0 mm | 4.92 m/s, 268° | 272 W/m² | - |
| 1777984177 | 27.22° C | 20% | 1008.8 hPa | 0 mm | 4.02 m/s, 286° | 269 W/m² | - |
| 1777983877 | 27.78° C | 20% | 1008.8 hPa | 0 mm | 3.13 m/s, 274° | 293 W/m² | - |
| 1777983577 | 27.78° C | 19% | 1008.8 hPa | 0 mm | 4.47 m/s, 184° | 530 W/m² | - |
| 1777983277 | 27.78° C | 19% | 1008.8 hPa | 0 mm | 3.58 m/s, 225° | 523 W/m² | - |
| 1777982977 | 27.78° C | 17% | 1009.1 hPa | 0 mm | 7.15 m/s, 186° | 506 W/m² | - |
| 1777982677 | 27.78° C | 18% | 1009.1 hPa | 0 mm | 2.68 m/s, 214° | 341 W/m² | - |
| 1777982377 | 28.33° C | 16% | 1009.1 hPa | 0 mm | 3.58 m/s, 243° | 498 W/m² | - |
| 1777982077 | 28.33° C | 17% | 1009.1 hPa | 0 mm | 6.26 m/s, 303° | 549 W/m² | - |
| 1777981777 | 28.33° C | 17% | 1009.1 hPa | 0 mm | 3.13 m/s, 238° | 421 W/m² | - |
* Rain latest hour (hover to see other rain measurements)
** Current wind speed in m/s (hover to see current wind gust speed)